Regional Weather Roundup
Issued by NWS Northern Indiana

Home | Current Version | Previous Version | Graphics & Text | Print | Product List | Glossary On
Versions: 1 2 3 4 5 6 7 8 9 10 11 12 13 14 15 16 17 18 19 20 21 22 23 24 25 26 27 28 29 30 31 32 33 34 35 36 37 38 39 40 41 42 43 44 45 46 47 48 49 50
000
ASUS43 KIWX 280300
RWRIWX

KIWX WEATHER ROUNDUP
NATIONAL WEATHER SERVICE NORTHERN INDIANA
1100 PM EDT THU APR 27 2017

NOTE: "FAIR" INDICATES FEW OR NO CLOUDS BELOW 12,000 FEET WITH NO
SIGNIFICANT WEATHER AND/OR OBSTRUCTIONS TO VISIBILITY.

* THESE STATIONS ARE NOT UNDER NWS QUALITY CONTROL. THEY ALSO MAY NOT
  REPORT WEATHER SUCH AS PRECIPITATION OR FOG.

INZ001>027-280400-
NORTHERN INDIANA

CITY           SKY/WX    TMP DP  RH WIND       PRES   REMARKS
GARY*          CLOUDY    48  37  66 MISG      29.86R
SOUTH BEND     CLOUDY    47  40  76 SW10      29.84R
GOSHEN         CLOUDY    48  38  68 SW13      29.83R
MONTICELLO*    CLOUDY    48  38  68 SW14      29.89R
ANGOLA*        CLOUDY    48  43  81 W12       29.84R
FORT WAYNE     MOCLDY    51  42  71 W9        29.86R
PERU/GRISSOM   CLOUDY    48  46  91 W9        29.87R

$$
INZ028>050-280400-
CENTRAL INDIANA

CITY           SKY/WX    TMP DP  RH WIND       PRES   REMARKS
LAFAYETTE      CLOUDY    48  43  82 W6        29.90R
KOKOMO*        CLOUDY    50  43  77 W12       29.89R
MUNCIE*        PTCLDY    50  44  80 W3        29.87R
INDIANAPOLIS   MOCLDY    50  44  80 W7        29.89R

$$
MIZ043>046-050>051-056>058-064>065-071>073-077>080-280400-
SOUTHWEST LOWER MICHIGAN

CITY           SKY/WX    TMP DP  RH WIND       PRES   REMARKS
BATTLE CREEK   CLOUDY    48  39  71 SW13G24   29.81R
BENTON HARBOR  CLOUDY    46  38  73 W14       29.82R
COLDWATER*     CLOUDY    49  39  69 SW17G24   29.83R
HILLSDALE*     CLOUDY    46  37  71 SW10G22   29.82R
HOLLAND        CLOUDY    45  37  73 W14G26    29.81R
GRAND RAPIDS   CLOUDY    45  39  79 SW20G25   29.79R
KALAMAZOO      CLOUDY    49  38  65 W13G26    29.82R
STURGIS*       CLOUDY    47  38  71 W14G22    29.82S
THREE RIVERS*  CLOUDY    48  38  70 W7G16     29.83R

$$
OHZ001>008-015>018-024>025-280400-
NORTHWEST OHIO

CITY           SKY/WX    TMP DP  RH WIND       PRES   REMARKS
DEFIANCE       MOCLDY    49  42  77 SW7       29.85R
FINDLAY        CLEAR     50  41  71 W9        29.84R
TOLEDO EXPRESS CLOUDY    52  42  69 SW16      29.82R
TOLEDO METCALF CLOUDY    53  44  71 W14       29.83R
LIMA           CLEAR     49  44  83 W9        29.86R

$$
AND FOR LAKE MICHIGAN COASTAL AND OPEN LAKE BUOY OBSERVATIONS

STATION/POSITION TEMP    WIND        PRES    VSBY  WAVE
                 AIR SEA DIR/SP/G                  HT/PER
                 (F)     (DEG/KT/KT) (MB)    (MI)  (FT/S)
CALUMET HARBOR    46     230/  7/ 12 1009.7R
MICHIGAN CITY     47     240/ 22/ 24   N/A
BURNS HARBOR      48     250/ 14/ 17 1011.2R
SOUTH LAKE BUOY   43 41  270/ 16/ 19 1008.5          3/ 5
4 MI NW BRIDGMAN  45 48  270/ 14/ 17 1010.6R         3/ 4
MICHIGAN CITY     46 47                N/A           4/ 4

$$
&&




USA.gov is the U.S. government's official web portal to all federal, state and local government web resources and services.